Other Public Products
Issued by NWS Grand Forks, ND

Home | Current Version | Previous Version | Text Only | Print | Product List | Glossary Off
Versions: 1 2 3 4 5 6 7 8 9 10 11 12 13 14 15 16 17 18 19 20 21 22 23 24 25 26 27 28 29 30 31 32 33 34 35 36 37 38 39 40 41 42 43 44 45 46 47 48 49 50

000
FPUS83 KFGF 171931
OPUFGF
PRAIRIE TO PINES WEATHER ROUNDUP
NATIONAL WEATHER SERVICE EASTERN NORTH DAKOTA/GRAND FORKS ND
100 PM CST TUE JAN 17 2017

 **SATELLITE DATA USED TO AUGMENT SKY COVER AT AUTOMATED STATIONS**
 *****  WEATHER ACROSS EASTERN NORTH DAKOTA  *****

CITY           SKY/WX    TMP DP  RH WIND       PRES   REMARKS
GRAND FORKS    FAIR      19  12  74 S15       29.85F WCI   5
GRAND FORKS AF FAIR      25  17  73 S10       29.83F WCI  15
GRAND CITY NWS NOT AVBL
BUXTON           N/A    N/A N/A N/A CALM        N/A
DEVILS LAKE    FAIR      25  19  78 SW18      29.77F WCI  11
FARGO          FAIR      18  13  80 S12       29.94S WCI   5
WAHPETON ARPT  FAIR      19  14  79 S6        29.96F WCI  11
$$

 *****  WEATHER ACROSS CENTRAL AND WESTERN NORTH DAKOTA  *****

CITY           SKY/WX    TMP DP  RH WIND       PRES   REMARKS
JAMESTOWN      FAIR      26  20  77 SW13      29.85F WCI  15
BISMARCK       FAIR      18  11  74 E3        29.86F
MINOT          FAIR      28  16  60 S21       29.70F WCI  15
MINOT AFB      FAIR      29  18  63 SW21      29.67F WCI  15
GARRISON         N/A     22  14  71 S9        29.76F WCI  12
WILLISTON      FAIR      25  14  63 S9G17     29.74F WCI  15
DICKINSON      FAIR      29  17  61 SW15      29.76F WCI  18
HETTINGER      FAIR      28  15  58 CALM      29.85F
$$

 *****  OTHER OBSERVATIONS NORTHEAST NORTH DAKOTA  *****

CITY           SKY/WX    TMP DP  RH WIND       PRES   REMARKS
WALHALLA       NOT AVBL
LANGDON        NOT AVBL
CAVALIER         N/A     27  21  80 S12       29.75F WCI  16
GRAFTON        FAIR      18  14  86 S15       29.83F WCI   3
CANDO          NOT AVBL
FORT TOTTEN      N/A     26  19  74 S12       29.95S WCI  16
ROLLA            N/A    N/A N/A N/A MISG        N/A
RUGBY            N/A     23  16  74 SW16      29.72F WCI  10
 ***** THE ABOVE OBSERVATIONS ARE NON NWS ARE NOT QUALITY
        CONTROLLED AND MAY MIS-REPORT RAIN FOR SNOW...
$$

 *****  OTHER OBSERVATIONS SOUTHEAST NORTH DAKOTA *****

CITY           SKY/WX    TMP DP  RH WIND       PRES   REMARKS
COOPERSTOWN    FAIR      23  19  86 S13       29.84F WCI  11
VALLEY CITY    FAIR      23  21  93 SW12      29.88F WCI  12
OAKES          NOT AVBL
GWINNER        FAIR      23  19  86 SW15      29.92F WCI  10
SHEYENNE NWR     N/A     23  15  71 SW8       29.95S WCI  14
BUFFALO          N/A     23  16  74 S10         N/A  WCI  12
WYNDMERE         N/A     27  19  74 S6          N/A  WCI  20
 ***** THE ABOVE OBSERVATIONS ARE NON NWS ARE NOT QUALITY
       CONTROLLED AND MAY MIS-REPORT RAIN FOR SNOW...
$$

  *****  WEATHER ACROSS NORTHERN MINNESOTA  *****

CITY           SKY/WX    TMP DP  RH WIND       PRES   REMARKS
FLAG ISLAND    FAIR      12   7  79 S13       29.80F WCI  -3
WARROAD        FAIR      25  18  74 SW5       29.82F WCI  19
ROSEAU         FAIR      21  16  79 S10       29.81F WCI  10
HALLOCK        FAIR      14  10  85 S15       29.80F WCI  -1
THF RVR FALLS  FAIR      19  14  81 S12       29.87F WCI   7
HALSTAD          N/A     15  10  80 S14         N/A  WCI   1
FOSSTON        FAIR      21  12  68 S12       29.89F WCI   9
BAUDETTE       FAIR      22  12  65 S7        29.83F WCI  13
WASKISH        FAIR      25  16  68 CALM      29.86F
CROOKSTON      FAIR      14  10  85 S13       29.88F WCI   0
$$
  *****  WEATHER ACROSS CENTRAL AND WEST MINNESOTA  *****

CITY           SKY/WX    TMP DP  RH WIND       PRES   REMARKS
BEMIDJI        FAIR      29  17  61 S3        29.87F
PARK RAPIDS    FAIR      22  15  75 S3        29.90F
WADENA         FAIR      21  18  86 SW5       29.92F WCI  15
DETROIT LAKES  FAIR      25  19  80 S6        29.91F WCI  18
MOORHEAD       FAIR      16  10  79 S7        29.95F WCI   6
FERGUS FALLS   FAIR      16  12  86 S6        30.00F WCI   7
ELBOW LAKE     FAIR      15  13  94 S7        29.96F FOG     WCI   5
MORRIS MN      FAIR      23  16  74 SW3       29.96F
STAPLES        FAIR      25  16  68 S3        29.93F
WHEATON        FAIR      27  21  80 SE7       29.98F WCI  19
$$
  *****  WEATHER ELSEWHERE ACROSS MINNESOTA  *****

CITY           SKY/WX    TMP DP  RH WIND       PRES   REMARKS
DULUTH         FAIR      32  29  88 CALM      29.90S
INTRNTL FALLS  FAIR      26  14  60 SW6       29.86F WCI  19
ELY            FAIR      32  23  69 SW6       29.88S
CLOQUET        FAIR      30  28  93 CALM      29.90F
BRAINERD       FAIR      24  15  68 SW6       29.94F WCI  17
HIBBING        FAIR      26  18  71 CALM      29.89F
ALEXANDRIA     FAIR      24  16  71 SW6       29.94F WCI  17
SAINT CLOUD    CLOUDY    30  30 100 SW8       29.97F FOG     WCI  22
MINNEAPOLIS    CLOUDY    35  28  75 NW12      29.96F
$$

  *****  WEATHER ACROSS SOUTH DAKOTA  *****

CITY           SKY/WX    TMP DP  RH WIND       PRES   REMARKS
SIOUX FALLS    FAIR      28  20  71 W6        30.02F WCI  22
BROOKINGS      FAIR      25  18  74 W9        29.99F WCI  15
WATERTOWN      FAIR      17  14  88 SW8       29.97F WCI   7
HURON          FAIR      24  16  71 S5        30.02F WCI  18
SISSETON         N/A     28  24  85 S7        29.94F WCI  21
ABERDEEN       FAIR      17   9  70 S10       29.98F WCI   5
MITCHELL       FAIR      30  21  69 CALM      30.04F
PIERRE         FAIR      21  13  71 S6        29.96F WCI  13
MOBRIDGE       FAIR      16   9  74 S9        29.89F WCI   4
RAPID CITY     FAIR      30  21  69 S3        29.90F
$$

  *****  SOME WEATHER IN NEARBY STATES *****

CITY           SKY/WX    TMP DP  RH WIND       PRES   REMARKS
GLASGOW MT     FAIR      27  20  75 E7        29.72F WCI  19
GREAT FALLS MT FAIR      40  22  48 SW25      29.83F
CHEYENNE WY    FAIR      47  12  24 W6        29.99F
SCOTTSBLUFF NE FAIR      40  18  41 CALM      29.99F
OMAHA NE       CLOUDY    30  25  81 W5        30.07F
DES MOINES IA  CLOUDY    36  33  89 NW14      30.01F FOG
DAVENPORT IA   CLOUDY    35  34  96 W14       29.93S FOG
CHICAGO IL     CLOUDY    38  36  92 W9        29.85S
EAU CLAIRE WI  CLOUDY    36  35  96 NW6       29.90S FOG
LA CROSSE WI   LGT SNOW  35  32  88 NW6       29.90S FOG
$$

  *****  SOME NATIONAL WEATHER *****

CITY           SKY/WX    TMP DP  RH WIND       PRES   REMARKS
LA GUARDIA NY  LGT RAIN  40  36  86 E7        30.13F FOG
RALEIGH NC     PTSUNNY   60  53  77 SW12      30.14F
ATLANTA GA     PTSUNNY   74  55  51 S17       30.14F
NEW ORLEANS LA PTSUNNY   79  65  62 S13       30.12F
OKLAHOMA CITY  FAIR      50  32  50 NW7       30.15F
ALBUQUERQUE NM FAIR      46  36  68 NW6       30.15F
SALT LAKE CITY FAIR      29  20  69 CALM      30.30F
LOS ANGELES CA FAIR      62  43  49 VRB6      30.12S
BOISE ID       FAIR      11   4  73 CALM      30.36S HAZE
SEATTLE WA     CLOUDY    44  39  82 SE3       29.76S
$$

*** WEATHER ACROSS MANITOBA...SASKATCHEWAN AND ONTARIO ***
                ***ONTARIO***

CITY           SKY/WX    TMP DP  RH WIND       PRES   REMARKS
GERALDTON      PTSUNNY   30  25  80 SW7       29.86F WCI  23
THUNDER BAY    MOSUNNY   32  27  80 CALM      29.90F
SIOUX LOOKOUT  CLOUDY    25  16  68 SW6       29.80F WCI  18
TORONTO        LGT RAIN  34  32  93 E14       29.83F FOG     WCI  24
BIG TROUT LK   SUNNY     25  21  86 S7        29.57F WCI  17
PICKLE LAKE    PTSUNNY   23  21  93 SW9G20    29.73F WCI  13
DRYDEN         PTSUNNY   25  18  74 S10       29.79F WCI  15
KENORA         PTSUNNY   19  12  73 S10       29.78F WCI   8
$$
                *** MANITOBA***

CITY           SKY/WX    TMP DP  RH WIND       PRES   REMARKS
BRANDON        PTSUNNY   27  18  69 SW24      29.62F WCI  12
DAUPHIN        SUNNY     30  19  64 W18G30    29.49S WCI  18
ISLAND LAKE    CLOUDY    36  25  64 S14G24    29.41F
PILOT MOUND      N/A     19  14  79 S17         N/A  WCI   4
THE PAS        MOSUNNY   37  23  56 SW16G23   29.29F
THOMPSON       CLOUDY    34  25  69 SW14G22   29.16F WCI  24
WINNIPEG       PTSUNNY   19  14  79 S20       29.71F WCI   4
LYNN LAKE      CLOUDY    32  28  86 W16G22    29.07F WCI  21
CHURCHILL      CLOUDY    28  25  86 SW13      29.06F WCI  18
GILLAM         CLOUDY    34  25  69 S15G25    29.19F WCI  24
$$
                ***SASKATCHEWAN***

CITY           SKY/WX    TMP DP  RH WIND       PRES   REMARKS
ESTEVAN        PTSUNNY   25  18  74 SW21G29   29.62F WCI  10
KINDERSLEY     PTSUNNY   37  30  75 SW7       29.49F
LLOYDMINSTER   PTSUNNY   41  32  70 SW12      29.39R
PRINCE ALBERT  PTSUNNY   34  25  69 SW5       29.38F
REGINA         PTSUNNY   37  28  70 SW14      29.52F
YORKTON        SUNNY     32  21  64 SW15      29.47F WCC1F1C2F2C3F3C4F4C5F5C6F6C7F7C8F8C9F9CaFaCbFbCcFcCdFdCe!


USA.gov is the U.S. government's official web portal to all federal, state and local government web resources and services.